Regional Weather Roundup
Issued by NWS

Home | Current Version | Previous Version | Graphics & Text | Print | Product List | Glossary On
Versions: 1 2 3 4 5 6 7 8 9 10 11 12 13 14 15 16 17 18 19 20 21 22 23 24 25 26 27 28 29 30 31 32 33 34 35 36 37 38 39 40 41 42 43 44 45 46 47 48 49 50
697
ASUS45 KSLC 160410
RWRUT

UTAH REGIONAL WEATHER ROUNDUP
NATIONAL WEATHER SERVICE SALT LAKE CITY UT
900 PM MST SUN JAN 15 2017

UTZ001>011-023>025-160500-

NORTHERN UTAH

CITY           SKY/WX    TMP DP  RH WIND       PRES   REMARKS
BRIGHAM CITY     N/A     16  11  81 CALM      30.20R
HILL AFB       MOCLDY    20  15  79 E8        30.16R WCI  10
LOGAN          PTCLDY     4   3  96 NW5       30.21R FOG     WCI  -5
OGDEN          CLOUDY    22  17  81 S3        30.17R
SALT LAKE CITY CLOUDY    29  24  82 N6        30.16S WCI  23
TOOELE VALLEY  CLOUDY    28  27  93 W5        30.18R WCI  23
WENDOVER       PTCLDY    27  21  80 NE3       30.19R
HEBER CITY     PTCLDY     3   0  85 CALM      30.11S
WEST JORDAN    CLOUDY    27  27 100 NW3       30.16S

$$

UTZ011>015-024>027-160500-

CENTRAL/NORTHEAST UTAH

CITY           SKY/WX    TMP DP  RH WIND       PRES   REMARKS
PROVO AIRPORT  CLOUDY    29  22  75 CALM      30.16S
MOAB/CANYONLAN MOCLDY    36  35  96 N5        29.94S WCI  32
DELTA          CLOUDY    30  27  86 N3        30.14S
PRICE          CLEAR     26  25  96 N5        29.94S WCI  20
RICHFIELD      CLOUDY    30  30 100 N6        30.13R FOG     WCI  24
ROOSEVELT      CLOUDY    27  23  86 CALM      30.06S
VERNAL         CLOUDY    28  25  88 N3        30.04S

$$

UTZ013>016-019>022-027-160500-

SOUTHERN UTAH

CITY           SKY/WX    TMP DP  RH WIND       PRES   REMARKS
BRYCE CANYON   CLOUDY    24  21  88 NW13      30.00R WCI  12
CEDAR CITY     CLOUDY    28  23  81 N7        30.08S WCI  21
MILFORD        CLOUDY    31  23  72 NE7       30.11S WCI  24
ST GEORGE      PTCLDY    39  28  65 SE7       30.07S WCI  34
HANKSVILLE     PTCLDY    36  36 100 MISG      29.98R
KANAB          CLOUDY    36  32  87 SE6       30.05R WCI  31
BLANDING       CLOUDY    35  35 100 NE5       29.98S WCI  31

$$

REGIONAL REPORTS     COLORADO/ARIZONA

CITY           SKY/WX    TMP DP  RH WIND       PRES   REMARKS
CRAIG, CO      CLOUDY    21  18  88 W6        30.02R FOG     WCI  13
GRAND JUNCTION CLOUDY    36  31  82 CALM      29.94S
RIFLE, CO      CLOUDY    32  26  78 W9        29.97R WCI  24
MONTROSE, CO   CLOUDY    36  34  92 CALM      29.95S
CORTEZ, CO     CLOUDY    37  34  89 CALM      29.90S
COLORADO CITY    N/A     30  28  93 CALM      30.05R
PAGE, AZ       CLOUDY    45  37  73 CALM      29.95S
GRAND CANYON   CLOUDY    35  33  92 CALM      30.01R
KINGMAN, AZ    CLEAR     40  28  62 E5        30.03R
FLAGSTAFF, AZ  CLOUDY    34  34 100 SW3       30.00S

$$

REGIONAL REPORTS    NEVADA/IDAHO/WYOMING

CITY           SKY/WX    TMP DP  RH WIND       PRES   REMARKS
LAS VEGAS, NV  PTCLDY    50  35  56 CALM      30.01R
ELY, NY        NOT AVBL
ELKO, NV       CLOUDY    25  19  78 W6        30.20R WCI  18
POCATELLO, ID  CLOUDY     7   2  80 SW7       30.26R WCI  -5
BURLEY, ID     CLOUDY    14  11  87 NW7       30.25S WCI   4
FORT BRIDGER,    N/A     10  10 100 W12       30.07R WCI  -5
EVANSTON, WY   CLOUDY     8   2  76 CALM      30.06R
ROCK SPRINGS,  CLOUDY     4   1  88 W7        30.05R WCI  -8

$$




USA.gov is the U.S. government's official web portal to all federal, state and local government web resources and services.